Regional Weather Roundup
Issued by NWS

Home | Current Version | Previous Version | Graphics & Text | Print | Product List | Glossary On
Versions: 1 2 3 4 5 6 7 8 9 10 11 12 13 14 15 16 17 18 19 20 21 22 23 24 25 26 27 28 29 30 31 32 33 34 35 36 37 38 39 40 41 42 43 44 45 46 47 48 49 50
000
ASUS43 KLMK 020510
RWRKY
KENTUCKY REGIONAL WEATHER ROUNDUP
NATIONAL WEATHER SERVICE LOUISVILLE KY
100 AM EDT THU APR 02 2015

NOTE "FAIR" INDICATES FEW OR NO CLOUDS BELOW 12,000 FEET
WITH NO SIGNIFICANT WEATHER AND/OR OBSTRUCTIONS TO VISIBILITY.

KYZ001>023-026-027-061>063-070>075-020600-
WESTERN AND SOUTH CENTRAL KENTUCKY

CITY           SKY/WX    TMP DP  RH WIND       PRES   REMARKS
PADUCAH        CLOUDY    62  50  64 S9        29.93S
HENDERSON      CLOUDY    63  34  34 SE8       29.92F
OWENSBORO      CLOUDY    62  34  35 SE7       29.96F
HOPKINSVILLE   CLOUDY    64  38  37 W3        29.98R
BOWLING GREEN  CLOUDY    58  34  40 E5        30.00F
GLASGOW        CLOUDY    53  32  43 CALM      30.01F
$$

KYZ024-025-028>034-038-045-046-053-020600-
NORTH CENTRAL KENTUCKY

CITY           SKY/WX    TMP DP  RH WIND       PRES   REMARKS
LOUISVILLE/SDF CLOUDY    55  30  38 SE7       30.01F
LOUISVILLE/LOU CLOUDY    58  28  32 SE6       30.01F
FORT KNOX      CLOUDY    53  30  41 E8        29.99F
$$

KYZ035>037-039>044-047>052-055>060-089>105-020600-
NORTHEAST KENTUCKY

CITY           SKY/WX    TMP DP  RH WIND       PRES   REMARKS
LEXINGTON      MOCLDY    53  24  32 SE7       30.06F
COVINGTON      MOCLDY    50  29  44 S10       30.04F
FRANKFORT      MOCLDY    49  29  46 SE5       30.04F
$$

KYZ054-064>069-076>088-106>120-020600-
SOUTHEAST KENTUCKY

CITY           SKY/WX    TMP DP  RH WIND       PRES   REMARKS
JACKSON        PTCLDY    57  15  19 SE5       30.10S
LONDON         MOCLDY    49  30  48 S3        30.09F
SOMERSET       MOCLDY    46  28  49 CALM      30.09F
MIDDLESBORO    MOCLDY    43  35  74 CALM      30.14R
MONTICELLO     MOCLDY    47  33  58 CALM      30.09F
$$



USA.gov is the U.S. government's official web portal to all federal, state and local government web resources and services.